Home > Weather > Idar-Oberstein > Past weeks

Flag for Germany Weather for the Past 2 Weeks in Idar-Oberstein, Rhineland-Palatinate, Germany

Now
46 °F

Clear.


Feels Like: 43 °F
Forecast: 44 / 70 °F
Wind: 7 mph from Southeast

Location: Hahn

Current Time: May 6, 2016 at 5:48:37 AM

Latest Report: May 6, 2016 at 5:20 AM


Visibility: 10 mi

Pressure: 30.01 "Hg

Humidity: 82%

Dew Point: 41 °F

Location of Idar-ObersteinLocation

Historic Weather in Idar-Oberstein — Graph

°F

Idar-Oberstein Temperature Yesterday

Maximum temperature yesterday: 61 °F (at 4:50 PM)
Minimum temperature yesterday: 37 °F (at 5:20 AM)
Average temperature yesterday: 50 °F

High & Low Weather Summary for the Past Weeks

 TemperatureHumidityPressure
High63 °F (Apr 21, 3:50 PM)100% (Apr 23, 6:20 AM)30.36 "Hg (Apr 23, 6:20 AM)
Low28 °F (Apr 25, 5:50 AM)30% (Apr 21, 5:50 PM)29.53 "Hg (Apr 25, 11:50 PM)
Average43 °F72%30.01 "Hg
* Reported Apr 21 4:20 AM — May 6 4:20 AM, Idar-Oberstein, Weather by CustomWeather, © 2016

Note: Actual official high and low records may vary slightly from our data, if they occured in-between our weather recording intervals... More about our weather records

Advertising

Idar-Oberstein Weather History for the Previous 24 Hours

Scroll right to see more
 ConditionsComfort  
Time TempWeatherWind HumidityBarometerVisibility
4:20 AM
Fri, May 6
46 °FClear.8 mph82%30.04 "Hg10 mi
3:50 AM48 °FClear.12 mph76%30.01 "Hg10 mi
3:20 AM48 °FClear.12 mph76%30.04 "Hg10 mi
2:50 AM48 °FClear.15 mph76%30.04 "Hg10 mi
2:20 AM50 °FClear.15 mph71%30.04 "Hg10 mi
1:50 AM50 °FClear.9 mph71%30.04 "Hg10 mi
1:20 AM50 °FClear.8 mph71%30.04 "Hg10 mi
12:50 AM50 °FClear.12 mph71%30.07 "Hg10 mi
12:20 AM52 °FClear.10 mph67%30.07 "Hg10 mi
11:50 PM
Thu, May 5
52 °FClear.12 mph67%30.07 "Hg10 mi
11:20 PM54 °FClear.12 mph63%30.07 "Hg10 mi
10:50 PM54 °FClear.13 mph63%30.07 "Hg10 mi
10:20 PM55 °FClear.15 mph59%30.07 "Hg10 mi
9:50 PM55 °FSunny.13 mph59%30.09 "Hg10 mi
9:20 PM55 °FSunny.9 mph59%30.09 "Hg10 mi
8:50 PM55 °FSunny.8 mph59%30.09 "Hg10 mi
8:20 PM59 °FSunny.12 mph51%30.09 "Hg10 mi
7:50 PM59 °FPassing clouds.10 mph51%30.09 "HgN/A
7:20 PM59 °FPassing clouds.13 mph51%30.09 "HgN/A
6:50 PM61 °FSunny.13 mph48%30.09 "Hg10 mi
6:20 PM61 °FSunny.15 mph48%30.12 "Hg10 mi
5:50 PM61 °FPassing clouds.14 mph48%30.12 "HgN/A
5:20 PM61 °FPassing clouds.13 mph48%30.12 "HgN/A
4:50 PM61 °FPassing clouds.15 mph52%30.12 "HgN/A
4:20 PM59 °FPassing clouds.14 mph51%30.15 "HgN/A
3:50 PM59 °FPassing clouds.13 mph51%30.15 "HgN/A
3:20 PM59 °FPassing clouds.15 mph51%30.18 "HgN/A
2:50 PM59 °FPassing clouds.16 mph51%30.18 "HgN/A
2:20 PM57 °FPassing clouds.15 mph55%30.18 "HgN/A
1:50 PM57 °FPassing clouds.15 mph51%30.18 "HgN/A
1:20 PM55 °FSunny.17 mph55%30.21 "Hg10 mi
12:50 PM55 °FSunny.16 mph51%30.21 "Hg10 mi
12:20 PM55 °FPassing clouds.15 mph51%30.21 "HgN/A
11:50 AM54 °FPassing clouds.16 mph51%30.21 "HgN/A
11:20 AM54 °FPassing clouds.16 mph47%30.24 "HgN/A
10:50 AM52 °FSunny.17 mph47%30.24 "Hg10 mi
10:20 AM52 °FSunny.17 mph54%30.24 "Hg10 mi
9:50 AM50 °FSunny.14 mph58%30.24 "Hg10 mi
9:20 AM46 °FSunny.10 mph66%30.27 "Hg10 mi
8:50 AM45 °FPassing clouds.9 mph66%30.27 "HgN/A
8:20 AM43 °FSunny.8 mph66%30.27 "Hg10 mi
7:50 AM41 °FSunny.7 mph66%30.27 "Hg10 mi
7:20 AM41 °FPassing clouds.5 mph66%30.27 "HgN/A
6:50 AM37 °FPassing clouds.3 mph70%30.27 "HgN/A
6:20 AM37 °FClear.5 mph70%30.27 "Hg10 mi
5:50 AM37 °FClear.3 mph70%30.27 "Hg10 mi
5:20 AM37 °FClear.3 mph70%30.27 "Hg10 mi
Weather by CustomWeather, © 2016

See weather overviewHow to use our weather pages